Starlink 34092

operational
NORAD ID: 63904 Int'l Des: 2025-095 Owner: SPXS Country: US Constellation: starlink
LEOCIRCULAR

关于 Starlink 34092

正在加载描述...

实时位置

正在加载3D地球...

即将过境

高度历史

Altitude vs Time

uPlot chart will show altitude changes over time

两行轨道根数

1 63904U 25095Q 25340.89920644 .00050154 00000-0 18179-2 0 9992
2 63904 43.0008 340.5179 0000491 292.1574 67.9226 15.27612698 33580
Epoch: Dec 6, 2025 • Age: 16 hours

当前状态

高度 484.2 km
速度 7.63 km/s
星下点 33.94°N, 103.39°E
发射日期 May 10, 2025
运行时间 0.5 years
类型 internet

技术详情

分类 Payload
质量 575.00 kg
干质量 530.00 kg
总质量 575.00 kg
长度 0.30 m
直径 4.10 m
跨度 29.00 m
形状 Box + pan
制造商 SPXS
平台类型 Starlink V2MO
阶段状态 In Orbit
所有者/国家 SPXS/US

大型星座

Loading constellations...